This is the latest recevied weather packets stored in our database for station/object K6CQU-13. If no packets are shown the sender has not sent any weather packets the latest 10 day(s).
| Time | Temp. | Humidity | Pressure | Rain* | Wind** | Luminosity | Snow |
|---|---|---|---|---|---|---|---|
| 1777842316 | 22.22° C | 48% | 1012 hPa | 0 mm | - | 1125 W/m² | - |
| 1777842016 | 21.67° C | 50% | 1012 hPa | 0 mm | - | 813 W/m² | - |
| 1777840216 | 21.67° C | 50% | 1011.9 hPa | 0 mm | - | 528 W/m² | - |
| 1777839916 | 21.11° C | 51% | 1012 hPa | 0 mm | - | 1100 W/m² | - |
| 1777839616 | 21.11° C | 51% | 1012 hPa | 0 mm | - | 1031 W/m² | - |
| 1777839318 | 21.11° C | 49% | 1012 hPa | 0 mm | - | 633 W/m² | - |
| 1777838718 | 21.11° C | 51% | 1012.1 hPa | 0 mm | - | 993 W/m² | - |
| 1777837521 | 20.56° C | 52% | 1012.3 hPa | 0 mm | - | 728 W/m² | - |
| 1777835418 | 20.56° C | 53% | 1012.5 hPa | 0 mm | - | 876 W/m² | - |
| 1777835118 | 20° C | 54% | 1012.4 hPa | 0 mm | - | 816 W/m² | - |
| 1777834818 | 20° C | 55% | 1012.5 hPa | 0 mm | - | 926 W/m² | - |
| 1777833018 | 18.89° C | 58% | 1012.7 hPa | 0 mm | - | 643 W/m² | - |
| 1777832718 | 18.89° C | 59% | 1012.7 hPa | 0 mm | - | 696 W/m² | - |
| 1777832418 | 18.89° C | 60% | 1012.7 hPa | 0 mm | - | 675 W/m² | - |
| 1777832118 | 18.33° C | 60% | 1012.7 hPa | 0 mm | - | 467 W/m² | - |
| 1777831818 | 18.33° C | 61% | 1012.7 hPa | 0 mm | - | 904 W/m² | - |
| 1777831518 | 18.33° C | 60% | 1012.7 hPa | 0 mm | - | 495 W/m² | - |
| 1777831218 | 18.89° C | 58% | 1012.7 hPa | 0 mm | - | 386 W/m² | - |
| 1777830918 | 18.89° C | 58% | 1012.6 hPa | 0 mm | - | 670 W/m² | - |
| 1777829718 | 18.89° C | 58% | 1012.5 hPa | 0 mm | - | 750 W/m² | - |
| 1777828518 | 18.33° C | 61% | 1012.4 hPa | 0 mm | - | 767 W/m² | - |
| 1777825218 | 15.56° C | 69% | 1012 hPa | 0 mm | - | 278 W/m² | - |
| 1777824918 | 15.56° C | 70% | 1012 hPa | 0 mm | - | 279 W/m² | - |
| 1777824318 | 15.56° C | 71% | 1012 hPa | 0 mm | - | 281 W/m² | - |
| 1777818017 | 13.33° C | 77% | 1011.2 hPa | 0 mm | - | 45 W/m² | - |
* Rain latest hour (hover to see other rain measurements)
** Current wind speed in m/s (hover to see current wind gust speed)